星链-36097(STARLINK-36097)

导读 | 豆包AI

STARLINK-36097是美国太空探索技术公司SpaceX星链星座的组网卫星,于2025年12月14日由美国发射升空。该卫星继承了星链星座低轨互联网通信的核心设计,旨在为全球范围内的偏远地区、海洋空域等场景提供高速卫星互联网接入服务,进一步完善星链星座的全球覆盖能力与服务容量。

基本信息
目录编号:
67091
目录名称:
STARLINK-36097
国际标识:
2025-298S
轨道中心:
EARTH
卫星名称:
星链-36097
卫星全名:
星链-36097(STARLINK-36097)
卫星状态:
在轨 (已飞行90 天)
发射日期:
2025-12-14 UTC
国别 :
美国 (US)
星等 :
--
轨道信息
数据来源 国际轨道数据
星历时间: 2026-03-13T13:55:20+0800
21小时前
查看轨道信息
半长轴: 6864.103km
偏心率: 0.0003946
轨道倾角: 70.001°
近地点辐角 213.805°
升交点赤经 4.154°
平近点角 146.287°
近地点: 483.257km
远地点: 488.675km
周期: 94.327分钟
每日圈数: 15.266066
详细信息
固有亮度:
5
最大亮度:
2.5
卫星平台:
Starlink V1.0
覆盖范围:
全球
运营商:
太空探索技术公司
运营商所在国:
美国
制造商(研发单位):
太空探索技术公司
制造商所在国:
美国
使用方式:
暂无
卫星简介
Starlink 计划是 SpaceX 推出的全球卫星互联网项目,通过发射低轨道卫星,为全球尤其是偏远地区提供高速、低延迟的互联网服务。自 2019 年起,Starlink 已部署数千颗卫星,旨在缩小全球数字鸿沟,推动互联网普及。该项目还为军事、航空等行业提供通信支持,带来广泛经济效益。
2D轨道图
3D轨道图
轨道高度分析图
轨道倾角分析图
轨道综合分析图
查看轨道综合分析图